Location: Acorn Hill
(36.4429°N, 76.5469°W)
Time: 04:14:06
(UTC+00:00)

ISS - Pass Details

Date: 02 August 2021
Orbit: 417 x 423 km, 51.6° (Epoch: 24 September)

Event Time Altitude Azimuth Distance (km) Brightness Sun altitude
Rises 02:41:44 0° 297° (WNW) 2,333 1.1 -25.2°
Reaches altitude 10° 02:44:09 10° 280° (W) 1,475 -0.4 -25.5°
Enters shadow 02:45:10 15° 265° (W) 1,196 -1.1 -25.6°
